SCP
0 0 0 0 0 0 0 0 0 0 0 0 0 0 0 0 0 0 0 0 0 0 0 0 0 0 0 0 0 0 0 0 0 0 0 0 0 0 0 0 0 0 0
0 0 0 0 0 0 0 0 0 0 0 0 0 0 0 0 0 0 0 0 0 0 0 0 0 0 0 0 0 0 0 0 0 0 0 0 0 0 0 0 0 0 0
0 0 0 0 0 0 0 0 0 0 0 0 0 0 0 0 0 0 0 0 0 0 0 0 0 0 0 0 0 0 0 0 0 0 0 0 0 0 0 0 0 0 0
0 0 0 0 0 0 0 0 0 0 0 0 0 0 0 0 0 0 0 0 0 0 0 0 0 0 0 0 0 0 0 0 0 0 0 0 0 0 0 0 0 0 0
0 0 0 0 0 0 0 0 0 0 0 0 0 0 0 0 0 0 0 0 0 0 0 0 0 0 0 0 0 0 0 0 0 0 0 0 0 0 0 0 0 0 0
0 0 0 0 0 0 0 0 0 0 0 0 0 0 0 0 0 0 0 0 0 0 0 0 0 0 0 0 0 0 0 0 0 0 0 0 0 0 0 0 0 0 0
0 0 0 0 0 0 0 0 0 0 0 0 0 0 0 0 0 0 0 0 0 0 0 0 0 0 0 0 0 0 0 0 0 0 0 0 0 0 0 0 0 0 0
1 1 1 1 1 1 1 1 1 1 0 0 0 0 0 0 0 0 0 0 0 0 0 0 0 0 0 0 0 0 0 0 0 0 0 0 0 0 0 0 0 0 0
1 1 1 1 1 1 1 1 1 1 1 1 1 0 1 0 0 0 0 0 0 0 0 0 0 0 0 0 0 0 0 0 0 0 0 0 0 0 0 0 0 0 0
1 1 1 1 1 1 1 1 1 1 1 1 1 1 1 1 1 0 0 0 0 0 0 0 0 0 0 0 0 0 0 0 0 0 0 0 0 0 0 0 0 0 0
1 1 1 1 1 1 1 1 1 1 1 1 1 1 1 1 1 1 1 1 0 0 0 0 0 0 0 0 0 0 0 0 0 0 0 0 0 0 0 0 0 0 0
1 1 1 1 1 1 1 1 1 1 1 1 1 1 1 1 1 1 1 1 1 0 0 0 0 0 0 0 0 0 0 0 0 0 0 0 0 0 0 0 0 0 0
1 1 1 1 1 2 2 2 1 1 1 1 1 1 1 1 1 1 1 1 1 1 0 0 0 0 0 0 0 0 0 0 0 0 0 0 0 0 0 0 0 0 0
1 1 1 1 1 1 2 2 1 1 1 1 1 1 1 1 1 1 1 1 1 1 1 1 1 1 0 1 1 1 0 0 0 0 0 0 0 0 0 0 0 0 0
1 1 1 1 1 1 1 1 1 1 1 1 1 1 1 1 1 1 1 1 1 1 1 1 1 1 0 0 0 1 1 1 0 0 0 0 0 0 0 0 0 0 0
1 1 1 1 1 1 1 1 1 1 1 1 1 1 1 1 1 1 1 1 1 1 1 1 1 1 0 0 0 0 1 1 1 1 0 0 0 0 0 0 0 0 0
1 1 1 1 1 1 1 1 1 1 1 1 1 1 1 1 1 1 1 1 1 1 1 1 1 1 0 0 0 0 0 1 1 1 1 0 0 0 0 0 0 0 0
1 1 1 1 1 1 1 1 1 1 1 1 1 1 1 1 1 1 1 1 1 1 1 1 1 1 1 0 0 0 0 1 1 1 1 0 0 0 0 0 0 0 0
1 1 1 1 1 1 1 1 1 1 1 1 1 1 1 1 1 1 1 1 1 1 1 1 1 1 1 0 0 0 0 1 1 1 1 0 0 0 0 0 0 0 0
1 1 1 1 1 1 1 1 1 1 1 1 1 1 1 1 1 1 1 1 1 1 1 1 1 1 1 0 0 0 0 1 1 1 1 0 0 0 0 0 0 0 0
1 1 1 1 0 0 0 0 0 0 0 0 1 1 1 1 1 1 1 1 1 1 1 1 1 1 0 0 0 0 0 0 1 1 0 0 0 0 0 0 0 0 0
0 0 0 0 0 0 0 0 0 0 0 0 0 1 1 1 1 1 1 1 1 1 1 1 1 1 0 0 0 0 0 0 0 0 0 0 0 0 0 0 0 0 0
0 0 0 0 0 0 0 0 0 0 0 0 0 0 1 1 1 1 1 1 1 1 1 1 1 0 0 0 0 0 0 0 0 0 0 0 0 0 0 0 0 0 0
0 0 0 0 0 0 0 0 0 0 0 0 0 0 0 0 0 0 1 1 1 1 1 0 0 0 0 0 0 0 0 0 0 0 0 0 0 0 0 0 0 0 0
0 0 0 0 0 0 0 0 0 0 0 0 0 0 0 0 0 0 0 0 1 1 0 0 0 0 0 0 0 0 0 0 0 0 0 0 0 0 0 0 0 0 0
0 0 0 0 0 0 0 0 0 0 0 0 0 0 0 0 0 0 0 0 0 0 0 0 0 0 0 0 0 0 0 0 0 0 0 0 0 0 0 0 0 0 0
Wind_Speed
8 7 8 8 7 7 7 7 6 5 5 3 3 2 2 2 2 2 3 4 4 4 4 3 3 3 3 3 3 2 2 1 1 1 1 2 2 2 2 2 2 3 4
6 7 8 8 9 9 8 8 7 6 6 4 3 2 2 2 2 1 2 3 4 4 4 4 3 3 3 3 3 2 2 1 2 2 1 2 3 2 1 1 2 3 3
12 10 10 10 9 10 11 10 9 8 7 5 3 2 2 1 1 1 1 2 4 4 4 4 4 3 3 3 3 3 4 2 1 2 2 2 2 2 2 1 1 2 2
11 11 11 11 12 12 10 9 9 8 7 6 5 5 4 3 3 2 2 2 3 3 4 4 4 4 3 3 3 3 3 3 2 1 1 2 2 1 2 2 1 2 3
12 12 13 13 11 10 9 8 8 7 7 7 7 6 4 3 2 2 2 2 1 2 3 4 4 4 3 4 3 3 3 3 3 3 2 2 1 1 2 2 2 2 2
12 11 10 9 8 8 8 8 8 8 8 8 7 7 6 5 4 3 3 2 1 1 2 3 3 4 3 4 4 4 4 3 3 2 2 2 2 2 2 3 2 2 2
10 10 10 10 10 10 10 9 9 8 8 8 8 7 7 6 5 4 4 3 2 2 3 3 4 3 3 3 3 3 3 4 4 3 3 3 3 2 2 2 2 2 2
10 11 12 11 11 11 11 10 10 9 8 8 8 6 6 5 4 4 4 4 4 4 4 4 4 4 4 4 4 3 3 3 4 4 4 3 3 3 3 3 2 1 1
10 10 10 11 11 11 12 11 10 8 8 9 7 6 6 6 5 5 4 3 3 3 4 4 4 4 4 4 4 3 3 3 3 4 4 3 3 3 3 3 3 3 2
6 7 8 10 10 10 9 9 9 8 8 7 7 7 7 7 6 5 5 4 4 4 4 4 4 4 4 4 3 3 3 3 3 3 3 3 3 2 3 3 3 3 3
6 7 6 7 7 6 7 7 7 6 6 7 7 6 5 6 6 5 6 5 4 4 4 5 4 4 4 4 4 4 4 4 4 3 4 4 3 2 2 2 3 3 3
3 5 5 5 6 6 6 6 6 6 6 6 6 6 5 5 5 5 5 5 5 5 5 5 5 5 5 5 5 5 4 4 4 4 4 4 3 3 3 3 3 3 3
3 4 5 6 5 5 5 5 5 5 4 5 5 5 5 6 6 6 5 5 5 4 4 4 5 5 5 5 5 5 4 5 5 5 5 4 4 4 3 3 3 3 2
3 3 4 5 4 4 5 4 4 4 4 4 5 5 5 6 6 5 5 5 4 4 5 5 5 5 4 5 5 5 5 5 5 5 5 5 5 5 5 4 4 3 3
3 3 3 3 3 3 3 4 4 4 4 4 4 4 3 3 3 4 4 4 4 5 5 4 4 3 3 4 4 5 5 5 5 4 4 5 5 6 5 4 4 4 3
2 3 3 3 3 3 3 3 3 4 4 4 4 3 3 3 3 3 4 4 4 4 4 4 4 4 4 5 6 5 5 5 5 5 4 4 5 6 6 6 6 6 5
2 3 3 3 3 3 3 3 3 3 4 4 3 2 3 4 4 4 4 5 5 4 4 4 4 4 5 6 6 7 5 4 4 5 4 3 3 4 3 4 4 5 5
1 2 3 3 3 3 2 2 2 2 2 2 1 1 2 3 3 3 4 4 4 4 5 5 5 5 5 6 7 6 5 4 4 4 4 4 3 3 4 3 3 3 3
1 1 2 3 3 3 3 3 1 1 2 1 1 2 2 2 2 3 4 3 3 4 5 5 6 5 5 5 6 6 4 4 4 4 4 4 4 3 4 4 4 3 3
2 2 2 3 3 2 3 3 2 1 1 1 1 1 1 2 3 3 3 2 4 5 4 4 4 4 4 4 6 6 3 3 3 3 3 3 3 3 5 5 4 4 3
2 2 2 2 1 1 3 2 1 1 1 1 1 1 1 2 2 2 2 2 3 3 3 3 2 2 3 3 4 5 4 4 3 3 2 2 3 4 4 5 4 4 3
2 2 3 2 2 2 2 1 1 2 1 1 0 0 1 1 1 2 1 2 2 2 2 2 2 1 1 2 3 4 5 4 3 3 2 2 3 4 4 4 3 3 3
1 1 2 2 2 2 1 0 2 2 2 1 1 1 1 1 1 1 2 1 1 2 2 2 2 1 1 1 1 2 4 4 3 2 2 2 2 3 2 2 3 3 2
1 0 2 2 2 2 1 1 1 1 0 0 1 1 1 1 1 1 1 1 1 2 2 2 2 2 1 1 1 1 1 2 2 1 1 2 2 1 1 2 2 2 2
1 1 1 1 1 1 1 2 1 1 1 1 1 1 1 1 1 1 1 1 1 2 3 3 3 2 2 3 3 2 2 2 2 2 1 1 2 2 1 1 1 2 2
1 1 1 1 1 0 1 2 2 1 1 1 2 1 1 1 1 0 1 3 1 1 0 2 3 2 2 2 3 3 2 2 4 3 2 2 2 2 2 2 2 1 2
Wind_Direction
207 190 187 185 178 176 177 181 180 178 160 153 162 166 198 200 202 204 195 193 194 185 177 191 187 180 186 192 177 164 171 185 154 106 337 320 287 255 247 243 237 236 232
197 193 188 184 184 186 188 188 188 183 178 176 169 164 164 180 192 199 190 192 194 190 191 187 191 186 180 178 172 165 159 183 161 148 122 331 330 320 284 253 234 238 233
201 197 191 191 188 192 193 195 191 187 183 170 138 117 101 87 128 175 193 200 197 192 189 186 185 184 177 188 191 181 174 186 195 177 163 175 242 300 311 276 253 242 232
201 196 193 194 196 198 193 191 186 185 181 170 167 168 176 191 200 190 194 200 192 190 188 186 182 181 182 192 202 191 187 176 192 198 211 199 179 199 303 310 288 266 251
202 198 197 197 196 191 187 187 181 184 182 180 182 181 190 197 181 167 178 197 199 196 194 184 175 181 190 200 200 190 193 189 188 185 182 188 192 189 208 277 304 305 268
201 200 196 186 183 178 179 179 181 190 185 185 187 189 192 188 179 188 190 199 202 207 202 183 179 188 197 202 200 196 198 201 197 191 186 181 181 193 195 232 265 283 286
194 193 186 182 178 177 181 180 184 192 189 188 194 196 194 187 193 199 200 196 201 209 213 196 189 196 202 202 191 190 202 200 197 200 205 207 207 184 182 199 234 260 286
193 194 190 186 183 181 181 181 186 191 187 192 200 197 191 187 196 202 200 202 209 213 205 195 198 203 201 201 191 195 204 198 202 208 205 210 218 199 195 192 192 240 275
194 193 185 180 180 181 186 185 184 185 187 193 194 193 190 189 194 196 200 205 210 207 196 193 197 201 194 192 186 198 207 196 203 212 215 218 222 210 213 209 198 195 234
192 187 183 182 180 184 179 174 180 185 187 189 196 200 196 194 188 182 199 208 210 207 190 193 195 192 189 188 187 200 209 206 218 217 218 222 226 220 213 214 213 205 208
188 179 176 174 168 160 159 165 172 175 183 191 196 198 195 192 185 194 204 206 202 197 193 192 192 193 195 193 195 205 200 210 224 226 225 232 219 211 211 207 206 207 197
156 152 146 142 148 148 151 161 166 176 190 191 188 190 187 183 193 205 209 198 199 200 199 194 197 200 201 197 201 214 209 212 223 227 225 235 221 211 213 208 211 215 209
96 108 119 127 132 141 150 160 162 170 179 178 184 189 190 191 199 202 197 197 202 201 198 198 206 208 205 200 204 210 213 216 223 221 219 226 214 221 220 217 218 220 214
99 107 116 119 135 147 147 148 151 156 165 165 180 192 203 202 200 200 190 197 201 201 205 208 212 212 211 207 206 206 212 217 221 220 220 222 214 220 217 218 220 212 203
87 99 110 118 127 128 134 142 145 152 158 161 181 199 204 197 192 195 191 199 204 213 208 203 205 206 208 212 206 210 215 217 222 224 226 228 221 219 214 213 209 200 202
106 109 119 133 141 145 141 136 147 161 162 170 189 189 178 186 196 200 189 189 201 205 196 196 198 206 217 210 202 202 216 216 220 228 234 233 230 229 220 219 210 198 199
140 137 139 151 152 146 147 156 168 165 163 163 169 181 181 187 198 206 194 192 197 192 201 209 209 219 228 215 212 208 209 215 220 223 227 229 231 214 214 217 211 209 210
120 132 127 119 129 131 132 154 147 140 145 141 160 185 206 201 198 200 199 196 194 196 205 215 220 223 234 224 221 213 209 218 224 223 217 211 219 216 204 202 207 218 222
140 122 121 119 119 126 127 120 121 119 117 141 193 205 199 213 218 215 212 201 204 212 214 213 213 218 233 221 215 203 207 219 229 227 221 211 211 216 194 194 212 230 247
58 59 66 93 103 109 118 121 133 132 155 198 228 230 215 202 218 220 217 206 211 217 214 219 219 217 233 226 211 200 208 219 226 224 221 218 217 208 190 200 207 227 241
86 84 85 82 80 82 99 101 76 272 258 238 218 215 224 215 217 222 215 208 206 211 216 228 239 234 240 232 213 200 203 214 218 218 222 220 200 197 188 195 209 221 208
58 60 72 56 35 52 92 81 292 286 302 302 276 254 228 219 201 194 218 208 193 205 221 218 234 242 252 246 222 204 207 205 206 217 220 204 181 187 183 186 199 186 156
51 64 93 70 26 26 72 156 284 299 322 345 334 336 351 327 269 221 220 214 202 214 227 219 226 242 226 237 228 206 203 200 200 210 199 184 163 165 178 178 160 150 144
73 69 84 73 22 5 21 308 294 296 316 342 325 339 341 331 336 321 264 233 233 226 220 217 222 234 238 235 214 196 199 193 194 192 140 127 123 132 121 118 140 151 155
174 135 139 160 247 340 348 330 341 22 24 327 306 327 321 293 318 350 341 263 251 223 216 221 212 213 233 239 201 183 200 198 188 157 136 149 155 157 158 148 145 149 149
204 174 180 205 236 253 337 334 347 25 60 351 337 332 325 301 250 154 15 19 338 32 319 232 205 223 224 215 194 177 188 180 156 143 165 186 187 187 189 181 173 164 175